IRNSS-1E

Last updated on Thu Apr 09 2026 00:02:50 GMT+0000 (Coordinated Universal Time)

1 41241U 16003A 26097.89014760 -.00000287 00000+0 00000+0 0 9997 2 41241 33.0851 60.7613 0016820 186.1026 21.5213 1.00270489 37373
UTC large
Height (km)
Speed (km/s)
/
Latitude / Longitude
Inclination (degrees)
Orbital Period (minutes)
Azimuth
Elevation
Range (km)
Doppler Factor

Next 0 passes for location: London (51.5072 / 0.1276)

Sorry there are no passes over London.
IRNSS-1E